Location: Kudlacze
(49.7800°N, 20.0200°E)
Time: 00:34:10
(UTC+00:00)

Envisat - Pass Details

Date: 29 September 2021
Orbit: 764 x 766 km, 98.2° (Epoch: 17 October)

Event Time Altitude Azimuth Distance (km) Brightness Sun altitude
Rises 03:06:49 0° 21° (NNE) 3,243 6.8 -15.2°
Reaches altitude 10° 03:09:23 10° 32° (NNE) 2,312 6.2 -14.8°
Maximum altitude 03:13:54 31° 94° (E) 1,311 5.0 -14.1°
Drops below altitude 10° 03:18:24 10° 157° (SSE) 2,296 5.6 -13.4°
Sets 03:20:55 0° 167° (SSE) 3,217 6.2 -13.0°
